Cedar Rapids, IA

2:28 PM CDT on May 23, 2018 (GMT -0500)
The Eastern Iowa Airport

Weather History for KCID - June, 2013

Change the Weather History Date:

Saturday, June 1, 2013

  Actual Average Record
Temperature  
Mean Temperature 65 °F 65 °F  
Max Temperature 71 °F 76 °F 99 °F (1934)
Min Temperature 59 °F 55 °F 39 °F (1993)
Degree Days  
Heating Degree Days 0 3  
Month to date heating degree days 0 3  
Since 1 June heating degree days 0 3  
Since 1 July heating degree days 6969 6840  
Cooling Degree Days 0 3  
Month to date cooling degree days 0 3  
Year to date cooling degree days 74 52  
Since 1 June cooling degree days 0 3  
Growing Degree Days 14 (Base 50)    
Moisture  
Dew Point 60 °F    
Average Humidity 80    
Maximum Humidity 100    
Minimum Humidity 59    
Precipitation  
Precipitation 0.03 in 0.15 in 0.93 in (2007)
Month to date precipitation 0.03 0.15  
Year to date precipitation 20.22 11.59  
Sea Level Pressure  
Sea Level Pressure 29.68 in    
Wind  
Wind Speed 13 mph (SW)    
Max Wind Speed 21 mph    
Max Gust Speed 29 mph    
Visibility 9 miles    
Events Rain    
T = Trace of Precipitation, MM = Missing Value Source: NWS Daily Summary

Daily Weather History Graph

Daily Weather History Graph

Search for Another Location

Airport or City:

Astronomy

Jun. 01, 2013 Rise Set
Actual Time 5:34 AM CDT 8:35 PM CDT
Civil Twilight 5:00 AM CDT 9:09 PM CDT
Nautical Twilight 4:17 AM CDT 9:52 PM CDT
Astronomical Twilight 3:27 AM CDT 10:42 PM CDT
Moon 1:36 AM CDT (6/1) 1:59 PM CDT (6/1)
Length of Visible Light 16h 08m
Length of Day
15h 01m
Last Quarter, 40% of the Moon is Illuminated
Jun 1
Last Quarter
Jun 8
New
Jun 16
First Quarter
Jun 23
Full
Jun 29
Last Quarter

Hourly Weather History & Observations

Time (CDT) Temp. Dew Point Humidity Pressure Visibility Wind Dir Wind Speed Gust Speed Precip Events Conditions
12:52 AM 66.0 °F 64.9 °F 96% 29.65 in 8.0 mi South 8.1 mph - N/A   Clear
1:15 AM 66.2 °F 64.4 °F 94% 29.66 in 7.0 mi South 9.2 mph - N/A   Scattered Clouds
1:24 AM 66.2 °F 64.4 °F 94% 29.66 in 7.0 mi South 11.5 mph - N/A   Mostly Cloudy
1:52 AM 66.0 °F 64.9 °F 96% 29.64 in 7.0 mi SSW 13.8 mph - N/A   Mostly Cloudy
2:02 AM 66.2 °F 64.4 °F 94% 29.65 in 8.0 mi SSW 13.8 mph - N/A   Scattered Clouds
2:52 AM 64.9 °F 64.0 °F 97% 29.61 in 7.0 mi SSW 12.7 mph - N/A   Clear
3:52 AM 64.9 °F 64.0 °F 97% 29.61 in 6.0 mi South 9.2 mph - N/A   Clear
4:13 AM 64.4 °F 64.4 °F 100% 29.63 in 6.0 mi SSW 12.7 mph - N/A   Partly Cloudy
4:41 AM 64.4 °F 64.4 °F 100% 29.64 in 7.0 mi SSW 12.7 mph - N/A   Mostly Cloudy
4:52 AM 64.9 °F 64.0 °F 97% 29.63 in 7.0 mi SSW 11.5 mph - N/A   Mostly Cloudy
5:52 AM 64.9 °F 63.0 °F 93% 29.63 in 6.0 mi SSW 9.2 mph - N/A   Mostly Cloudy
6:02 AM 64.4 °F 62.6 °F 94% 29.65 in 7.0 mi SSW 8.1 mph - N/A   Scattered Clouds
6:52 AM 64.0 °F 62.1 °F 93% 29.65 in 9.0 mi SW 10.4 mph - N/A   Partly Cloudy
7:52 AM 64.9 °F 60.1 °F 84% 29.65 in 10.0 mi WSW 11.5 mph - N/A   Partly Cloudy
8:52 AM 63.0 °F 54.0 °F 72% 29.67 in 10.0 mi West 12.7 mph - N/A   Partly Cloudy
9:52 AM 64.9 °F 53.1 °F 65% 29.68 in 10.0 mi West 12.7 mph - N/A   Clear
10:52 AM 66.9 °F 53.1 °F 61% 29.67 in 10.0 mi SSW 9.2 mph - N/A   Clear
11:52 AM 68.0 °F 54.0 °F 61% 29.68 in 10.0 mi SW 15.0 mph 19.6 mph N/A   Scattered Clouds
12:52 PM 68.0 °F 55.0 °F 63% 29.68 in 10.0 mi WSW 9.2 mph - N/A   Mostly Cloudy
1:52 PM 68.0 °F 55.9 °F 65% 29.69 in 10.0 mi WSW 13.8 mph - N/A   Mostly Cloudy
2:52 PM 66.9 °F 55.0 °F 66% 29.69 in 10.0 mi West 15.0 mph - N/A   Scattered Clouds
3:52 PM 66.9 °F 57.0 °F 70% 29.70 in 10.0 mi West 13.8 mph - N/A   Overcast
4:52 PM 66.9 °F 57.9 °F 73% 29.71 in 10.0 mi West 13.8 mph - N/A   Overcast
5:52 PM 68.0 °F 57.0 °F 68% 29.71 in 10.0 mi West 17.3 mph - N/A   Mostly Cloudy
6:52 PM 66.9 °F 57.9 °F 73% 29.71 in 10.0 mi West 13.8 mph - N/A   Overcast
7:52 PM 64.9 °F 57.9 °F 78% 29.72 in 10.0 mi WSW 13.8 mph - N/A   Partly Cloudy
8:52 PM 63.0 °F 60.1 °F 90% 29.74 in 7.0 mi West 16.1 mph 21.9 mph 0.03 in Rain Light Rain
9:52 PM 62.1 °F 59.0 °F 90% 29.76 in 10.0 mi WNW 15.0 mph 20.7 mph 0.00 in   Clear
10:52 PM 60.1 °F 57.0 °F 90% 29.78 in 10.0 mi WNW 13.8 mph - N/A   Clear
11:42 PM 60.8 °F 57.2 °F 88% 29.81 in 10.0 mi WNW 15.0 mph - N/A   Overcast
11:52 PM 60.1 °F 57.9 °F 93% 29.81 in 10.0 mi WNW 11.5 mph - N/A   Overcast